Year,Month,Day,Hour,Minute,Value (Times are PST for temperature in C)
2017,12,14,00,00,4.70
2017,12,14,00,01,4.70
2017,12,14,00,02,4.70
2017,12,14,00,03,4.80
2017,12,14,00,04,4.80
2017,12,14,00,05,4.90
2017,12,14,00,06,4.90
2017,12,14,00,07,5.00
2017,12,14,00,08,5.00
2017,12,14,00,09,5.10
2017,12,14,00,10,5.10
2017,12,14,00,11,5.10
2017,12,14,00,12,5.20
2017,12,14,00,13,5.20
2017,12,14,00,14,5.20
2017,12,14,00,15,5.20
2017,12,14,00,16,5.20
2017,12,14,00,17,5.20
2017,12,14,00,18,5.30
2017,12,14,00,19,5.30
2017,12,14,00,20,5.40
2017,12,14,00,21,5.40
2017,12,14,00,22,5.40
2017,12,14,00,23,5.50
2017,12,14,00,24,5.50
2017,12,14,00,25,5.50
2017,12,14,00,26,5.50
2017,12,14,00,27,5.40
2017,12,14,00,28,5.40
2017,12,14,00,29,5.30
2017,12,14,00,30,5.30
2017,12,14,00,31,5.30
2017,12,14,00,32,5.30
2017,12,14,00,33,5.20
2017,12,14,00,34,5.20
2017,12,14,00,35,5.20
2017,12,14,00,36,5.20
2017,12,14,00,37,5.10
2017,12,14,00,38,5.10
2017,12,14,00,39,5.10
2017,12,14,00,40,5.10
2017,12,14,00,41,5.10
2017,12,14,00,42,5.10
2017,12,14,00,43,5.10
2017,12,14,00,44,5.10
2017,12,14,00,45,5.10
2017,12,14,00,46,5.20
2017,12,14,00,47,5.20
2017,12,14,00,48,5.20
2017,12,14,00,49,5.30
2017,12,14,00,50,5.30
2017,12,14,00,51,5.30
2017,12,14,00,52,5.40
2017,12,14,00,53,5.40
2017,12,14,00,54,5.40
2017,12,14,00,55,5.30
2017,12,14,00,56,5.30
2017,12,14,00,57,5.30
2017,12,14,00,58,5.30
2017,12,14,00,59,5.30
2017,12,14,01,00,5.30
2017,12,14,01,01,5.20
2017,12,14,01,02,5.20
2017,12,14,01,03,5.10
2017,12,14,01,04,5.00
2017,12,14,01,05,4.90
2017,12,14,01,06,4.90
2017,12,14,01,07,4.80
2017,12,14,01,08,4.80
2017,12,14,01,09,4.80
2017,12,14,01,10,4.80
2017,12,14,01,11,4.70
2017,12,14,01,12,4.70
2017,12,14,01,13,4.70
2017,12,14,01,14,4.70
2017,12,14,01,15,4.70
2017,12,14,01,16,4.70
2017,12,14,01,17,4.60
2017,12,14,01,18,4.60
2017,12,14,01,19,4.60
2017,12,14,01,20,4.60
2017,12,14,01,21,4.60
2017,12,14,01,22,4.60
2017,12,14,01,23,4.50
2017,12,14,01,24,4.60
2017,12,14,01,25,4.50
2017,12,14,01,26,4.50
2017,12,14,01,27,4.50
2017,12,14,01,28,4.60
2017,12,14,01,29,4.60
2017,12,14,01,30,4.60
2017,12,14,01,31,4.60
2017,12,14,01,32,4.60
2017,12,14,01,33,4.60
2017,12,14,01,34,4.70
2017,12,14,01,35,4.70
2017,12,14,01,36,4.80
2017,12,14,01,37,4.80
2017,12,14,01,38,4.90
2017,12,14,01,39,4.90
2017,12,14,01,40,5.00
2017,12,14,01,41,5.00
2017,12,14,01,42,5.00
2017,12,14,01,43,5.10
2017,12,14,01,44,5.10
2017,12,14,01,45,5.10
2017,12,14,01,46,5.10
2017,12,14,01,47,5.10
2017,12,14,01,48,5.10
2017,12,14,01,49,5.10
2017,12,14,01,50,5.10
2017,12,14,01,51,5.00
2017,12,14,01,52,4.90
2017,12,14,01,53,4.80
2017,12,14,01,54,4.70
2017,12,14,01,55,4.60
2017,12,14,01,56,4.50
2017,12,14,01,57,4.50
2017,12,14,01,58,4.40
2017,12,14,01,59,4.40
2017,12,14,02,00,4.40
2017,12,14,02,01,4.40
2017,12,14,02,02,4.50
2017,12,14,02,03,4.50
2017,12,14,02,04,4.50
2017,12,14,02,05,4.60
2017,12,14,02,06,4.60
2017,12,14,02,07,4.60
2017,12,14,02,08,4.70
2017,12,14,02,09,4.80
2017,12,14,02,10,4.80
2017,12,14,02,11,4.80
2017,12,14,02,12,4.70
2017,12,14,02,13,4.70
2017,12,14,02,14,4.60
2017,12,14,02,15,4.60
2017,12,14,02,16,4.60
2017,12,14,02,17,4.60
2017,12,14,02,18,4.60
2017,12,14,02,19,4.60
2017,12,14,02,20,4.70
2017,12,14,02,21,4.70
2017,12,14,02,22,4.80
2017,12,14,02,23,5.00
2017,12,14,02,24,5.10
2017,12,14,02,25,5.20
2017,12,14,02,26,5.20
2017,12,14,02,27,5.20
2017,12,14,02,28,5.20
2017,12,14,02,29,5.20
2017,12,14,02,30,5.30
2017,12,14,02,31,5.40
2017,12,14,02,32,5.40
2017,12,14,02,33,5.50
2017,12,14,02,34,5.50
2017,12,14,02,35,5.50
2017,12,14,02,36,5.50
2017,12,14,02,37,5.40
2017,12,14,02,38,5.40
2017,12,14,02,39,5.40
2017,12,14,02,40,5.40
2017,12,14,02,41,5.40
2017,12,14,02,42,5.40
2017,12,14,02,43,5.40
2017,12,14,02,44,5.40
2017,12,14,02,45,5.40
2017,12,14,02,46,5.40
2017,12,14,02,47,5.40
2017,12,14,02,48,5.40
2017,12,14,02,49,5.40
2017,12,14,02,50,5.40
2017,12,14,02,51,5.40
2017,12,14,02,52,5.40
2017,12,14,02,53,5.40
2017,12,14,02,54,5.40
2017,12,14,02,55,5.50
2017,12,14,02,56,5.50
2017,12,14,02,57,5.60
2017,12,14,02,58,5.50
2017,12,14,02,59,5.40
2017,12,14,03,00,5.40
2017,12,14,03,01,5.50
2017,12,14,03,02,5.50
2017,12,14,03,03,5.60
2017,12,14,03,04,5.60
2017,12,14,03,05,5.70
2017,12,14,03,06,5.70
2017,12,14,03,07,5.70
2017,12,14,03,08,5.80
2017,12,14,03,09,5.70
2017,12,14,03,10,5.70
2017,12,14,03,11,5.70
2017,12,14,03,12,5.60
2017,12,14,03,13,5.50
2017,12,14,03,14,5.50
2017,12,14,03,15,5.40
2017,12,14,03,16,5.40
2017,12,14,03,17,5.40
2017,12,14,03,18,5.40
2017,12,14,03,19,5.40
2017,12,14,03,20,5.40
2017,12,14,03,21,5.30
2017,12,14,03,22,5.30
2017,12,14,03,23,5.20
2017,12,14,03,24,5.20
2017,12,14,03,25,5.20
2017,12,14,03,26,5.20
2017,12,14,03,27,5.20
2017,12,14,03,28,5.20
2017,12,14,03,29,5.20
2017,12,14,03,30,5.20
2017,12,14,03,31,5.30
2017,12,14,03,32,5.30
2017,12,14,03,33,5.30
2017,12,14,03,34,5.40
2017,12,14,03,35,5.50
2017,12,14,03,36,5.50
2017,12,14,03,37,5.60
2017,12,14,03,38,5.60
2017,12,14,03,39,5.60
2017,12,14,03,40,5.60
2017,12,14,03,41,5.70
2017,12,14,03,42,5.80
2017,12,14,03,43,5.80
2017,12,14,03,44,5.90
2017,12,14,03,45,5.90
2017,12,14,03,46,6.00
2017,12,14,03,47,6.00
2017,12,14,03,48,5.90
2017,12,14,03,49,6.00
2017,12,14,03,50,6.00
2017,12,14,03,51,6.00
2017,12,14,03,52,6.00
2017,12,14,03,53,6.00
2017,12,14,03,54,6.00
2017,12,14,03,55,6.00
2017,12,14,03,56,6.00
2017,12,14,03,57,6.10
2017,12,14,03,58,6.20
2017,12,14,03,59,6.20
2017,12,14,04,00,6.20
2017,12,14,04,01,6.30
2017,12,14,04,02,6.20
2017,12,14,04,03,6.20
2017,12,14,04,04,6.30
2017,12,14,04,05,6.30
2017,12,14,04,06,6.30
2017,12,14,04,07,6.40
2017,12,14,04,08,6.40
2017,12,14,04,09,6.40
2017,12,14,04,10,6.30
2017,12,14,04,11,6.30
2017,12,14,04,12,6.20
2017,12,14,04,13,6.20
2017,12,14,04,14,6.20
2017,12,14,04,15,6.10
2017,12,14,04,16,6.10
2017,12,14,04,17,6.10
2017,12,14,04,18,6.20
2017,12,14,04,19,6.10
2017,12,14,04,20,6.20
2017,12,14,04,21,6.20
2017,12,14,04,22,6.20
2017,12,14,04,23,6.20
2017,12,14,04,24,6.20
2017,12,14,04,25,6.20
2017,12,14,04,26,6.30
2017,12,14,04,27,6.30
2017,12,14,04,28,6.30
2017,12,14,04,29,6.30
2017,12,14,04,30,6.30
2017,12,14,04,31,6.30
2017,12,14,04,32,6.30
2017,12,14,04,33,6.20
2017,12,14,04,34,6.20
2017,12,14,04,35,6.20
2017,12,14,04,36,6.20
2017,12,14,04,37,6.20
2017,12,14,04,38,6.30
2017,12,14,04,39,6.40
2017,12,14,04,40,6.50
2017,12,14,04,41,6.60
2017,12,14,04,42,6.70
2017,12,14,04,43,6.70
2017,12,14,04,44,6.70
2017,12,14,04,45,6.70
2017,12,14,04,46,6.70
2017,12,14,04,47,6.60
2017,12,14,04,48,6.50
2017,12,14,04,49,6.50
2017,12,14,04,50,6.40
2017,12,14,04,51,6.40
2017,12,14,04,52,6.40
2017,12,14,04,53,6.40
2017,12,14,04,54,6.40
2017,12,14,04,55,6.50
2017,12,14,04,56,6.50
2017,12,14,04,57,6.60
2017,12,14,04,58,6.50
2017,12,14,04,59,6.50
2017,12,14,05,00,6.50
2017,12,14,05,01,6.50
2017,12,14,05,02,6.50
2017,12,14,05,03,6.50
2017,12,14,05,04,6.50
2017,12,14,05,05,6.60
2017,12,14,05,06,6.60
2017,12,14,05,07,6.60
2017,12,14,05,08,6.60
2017,12,14,05,09,6.70
2017,12,14,05,10,6.60
2017,12,14,05,11,6.60
2017,12,14,05,12,6.50
2017,12,14,05,13,6.50
2017,12,14,05,14,6.40
2017,12,14,05,15,6.40
2017,12,14,05,16,6.40
2017,12,14,05,17,6.30
2017,12,14,05,18,6.30
2017,12,14,05,19,6.30
2017,12,14,05,20,6.30
2017,12,14,05,21,6.20
2017,12,14,05,22,6.20
2017,12,14,05,23,6.10
2017,12,14,05,24,6.10
2017,12,14,05,25,6.10
2017,12,14,05,26,6.10
2017,12,14,05,27,6.10
2017,12,14,05,28,6.00
2017,12,14,05,29,6.00
2017,12,14,05,30,6.00
2017,12,14,05,31,6.00
2017,12,14,05,32,6.10
2017,12,14,05,33,6.10
2017,12,14,05,34,6.10
2017,12,14,05,35,6.10
2017,12,14,05,36,6.10
2017,12,14,05,37,6.00
2017,12,14,05,38,6.00
2017,12,14,05,39,5.90
2017,12,14,05,40,5.90
2017,12,14,05,41,5.80
2017,12,14,05,42,5.80
2017,12,14,05,43,5.80
2017,12,14,05,44,5.70
2017,12,14,05,45,5.70
2017,12,14,05,46,5.60
2017,12,14,05,47,5.50
2017,12,14,05,48,5.40
2017,12,14,05,49,5.30
2017,12,14,05,50,5.30
2017,12,14,05,51,5.30
2017,12,14,05,52,5.20
2017,12,14,05,53,5.20
2017,12,14,05,54,5.20
2017,12,14,05,55,5.10
2017,12,14,05,56,5.10
2017,12,14,05,57,5.10
2017,12,14,05,58,5.10
2017,12,14,05,59,5.10
2017,12,14,06,00,5.10
2017,12,14,06,01,5.20
2017,12,14,06,02,5.20
2017,12,14,06,03,5.30
2017,12,14,06,04,5.40
2017,12,14,06,05,5.50
2017,12,14,06,06,5.50
2017,12,14,06,07,5.50
2017,12,14,06,08,5.40
2017,12,14,06,09,5.30
2017,12,14,06,10,5.20
2017,12,14,06,11,5.10
2017,12,14,06,12,5.00
2017,12,14,06,13,4.90
2017,12,14,06,14,4.90
2017,12,14,06,15,4.80
2017,12,14,06,16,4.70
2017,12,14,06,17,4.70
2017,12,14,06,18,4.70
2017,12,14,06,19,4.70
2017,12,14,06,20,4.70
2017,12,14,06,21,4.60
2017,12,14,06,22,4.60
2017,12,14,06,23,4.50
2017,12,14,06,24,4.40
2017,12,14,06,25,4.40
2017,12,14,06,26,4.40
2017,12,14,06,27,4.40
2017,12,14,06,28,4.40
2017,12,14,06,29,4.30
2017,12,14,06,30,4.30
2017,12,14,06,31,4.30
2017,12,14,06,32,4.20
2017,12,14,06,33,4.20
2017,12,14,06,34,4.10
2017,12,14,06,35,4.00
2017,12,14,06,36,4.00
2017,12,14,06,37,4.00
2017,12,14,06,38,3.90
2017,12,14,06,39,3.90
2017,12,14,06,40,3.80
2017,12,14,06,41,3.80
2017,12,14,06,42,3.80
2017,12,14,06,43,3.80
2017,12,14,06,44,3.90
2017,12,14,06,45,3.90
2017,12,14,06,46,3.90
2017,12,14,06,47,3.90
2017,12,14,06,48,4.00
2017,12,14,06,49,4.20
2017,12,14,06,50,4.30
2017,12,14,06,51,4.40
2017,12,14,06,52,4.50
2017,12,14,06,53,4.50
2017,12,14,06,54,4.60
2017,12,14,06,55,4.60
2017,12,14,06,56,4.60
2017,12,14,06,57,4.60
2017,12,14,06,58,4.70
2017,12,14,06,59,4.80
2017,12,14,07,00,4.80
2017,12,14,07,01,4.90
2017,12,14,07,02,5.00
2017,12,14,07,03,5.00
2017,12,14,07,04,5.00
2017,12,14,07,05,5.00
2017,12,14,07,06,5.10
2017,12,14,07,07,5.10
2017,12,14,07,08,5.10
2017,12,14,07,09,5.20
2017,12,14,07,10,5.20
2017,12,14,07,11,5.20
2017,12,14,07,12,5.20
2017,12,14,07,13,5.20
2017,12,14,07,14,5.20
2017,12,14,07,15,5.30
2017,12,14,07,16,5.30
2017,12,14,07,17,5.40
2017,12,14,07,18,5.40
2017,12,14,07,19,5.40
2017,12,14,07,20,5.40
2017,12,14,07,21,5.40
2017,12,14,07,22,5.40
2017,12,14,07,23,5.30
2017,12,14,07,24,5.20
2017,12,14,07,25,5.20
2017,12,14,07,26,5.20
2017,12,14,07,27,5.10
2017,12,14,07,28,5.00
2017,12,14,07,29,4.90
2017,12,14,07,30,4.80
2017,12,14,07,31,4.70
2017,12,14,07,32,4.50
2017,12,14,07,33,4.40
2017,12,14,07,34,4.30
2017,12,14,07,35,4.20
2017,12,14,07,36,4.20
2017,12,14,07,37,4.20
2017,12,14,07,38,4.30
2017,12,14,07,39,4.30
2017,12,14,07,40,4.30
2017,12,14,07,41,4.40
2017,12,14,07,42,4.40
2017,12,14,07,43,4.50
2017,12,14,07,44,4.50
2017,12,14,07,45,4.50
2017,12,14,07,46,4.60
2017,12,14,07,47,4.60
2017,12,14,07,48,4.60
2017,12,14,07,49,4.70
2017,12,14,07,50,4.70
2017,12,14,07,51,4.80
2017,12,14,07,52,4.80
2017,12,14,07,53,4.80
2017,12,14,07,54,4.80
2017,12,14,07,55,4.80
2017,12,14,07,56,4.80
2017,12,14,07,57,4.80
2017,12,14,07,58,4.70
2017,12,14,07,59,4.70
2017,12,14,08,00,4.70
2017,12,14,08,01,4.60
2017,12,14,08,02,4.60
2017,12,14,08,03,4.60
2017,12,14,08,04,4.60
2017,12,14,08,05,4.60
2017,12,14,08,06,4.60
2017,12,14,08,07,4.70
2017,12,14,08,08,4.70
2017,12,14,08,09,4.70
2017,12,14,08,10,4.70
2017,12,14,08,11,4.70
2017,12,14,08,12,4.60
2017,12,14,08,13,4.60
2017,12,14,08,14,4.50
2017,12,14,08,15,4.50
2017,12,14,08,16,4.50
2017,12,14,08,17,4.40
2017,12,14,08,18,4.40
2017,12,14,08,19,4.40
2017,12,14,08,20,4.30
2017,12,14,08,21,4.40
2017,12,14,08,22,4.40
2017,12,14,08,23,4.40
2017,12,14,08,24,4.50
2017,12,14,08,25,4.50
2017,12,14,08,26,4.60
2017,12,14,08,27,4.60
2017,12,14,08,28,4.60
2017,12,14,08,29,4.60
2017,12,14,08,30,4.60
2017,12,14,08,31,4.60
2017,12,14,08,32,4.60
2017,12,14,08,33,4.60
2017,12,14,08,34,4.60
2017,12,14,08,35,4.50
2017,12,14,08,36,4.50
2017,12,14,08,37,4.50
2017,12,14,08,38,4.50
2017,12,14,08,39,4.40
2017,12,14,08,40,4.40
2017,12,14,08,41,4.40
2017,12,14,08,42,4.30
2017,12,14,08,43,4.30
2017,12,14,08,44,4.30
2017,12,14,08,45,4.20
2017,12,14,08,46,4.20
2017,12,14,08,47,4.30
2017,12,14,08,48,4.30
2017,12,14,08,49,4.30
2017,12,14,08,50,4.40
2017,12,14,08,51,4.40
2017,12,14,08,52,4.50
2017,12,14,08,53,4.60
2017,12,14,08,54,4.70
2017,12,14,08,55,4.70
2017,12,14,08,56,4.70
2017,12,14,08,57,4.70
2017,12,14,08,58,4.70
2017,12,14,08,59,4.70
2017,12,14,09,00,4.70
2017,12,14,09,01,4.80
2017,12,14,09,02,4.70
2017,12,14,09,03,4.70
2017,12,14,09,04,4.70
2017,12,14,09,05,4.60
2017,12,14,09,06,4.60
2017,12,14,09,07,4.60
2017,12,14,09,08,4.60
2017,12,14,09,09,4.50
2017,12,14,09,10,4.60
2017,12,14,09,11,4.60
2017,12,14,09,12,4.60
2017,12,14,09,13,4.70
2017,12,14,09,14,4.70
2017,12,14,09,15,4.80
2017,12,14,09,16,4.90
2017,12,14,09,17,5.00
2017,12,14,09,18,5.00
2017,12,14,09,19,5.10
2017,12,14,09,20,5.20
2017,12,14,09,21,5.30
2017,12,14,09,22,5.30
2017,12,14,09,23,5.40
2017,12,14,09,24,5.50
2017,12,14,09,25,5.60
2017,12,14,09,26,5.70
2017,12,14,09,27,5.90
2017,12,14,09,28,6.00
2017,12,14,09,29,6.10
2017,12,14,09,30,6.20
2017,12,14,09,31,6.30
2017,12,14,09,32,6.40
2017,12,14,09,33,6.50
2017,12,14,09,34,6.60
2017,12,14,09,35,6.70
2017,12,14,09,36,6.70
2017,12,14,09,37,6.80
2017,12,14,09,38,6.80
2017,12,14,09,39,6.90
2017,12,14,09,40,7.00
2017,12,14,09,41,7.00
2017,12,14,09,42,7.10
2017,12,14,09,43,7.10
2017,12,14,09,44,7.10
2017,12,14,09,45,7.10
2017,12,14,09,46,7.10
2017,12,14,09,47,7.10
2017,12,14,09,48,7.20
2017,12,14,09,49,7.20
2017,12,14,09,50,7.20
2017,12,14,09,51,7.20
2017,12,14,09,52,7.20
2017,12,14,09,53,7.20
2017,12,14,09,54,7.20
2017,12,14,09,55,7.30
2017,12,14,09,56,7.30
2017,12,14,09,57,7.40
2017,12,14,09,58,7.40
2017,12,14,09,59,7.40
2017,12,14,10,00,7.50
2017,12,14,10,01,7.50
2017,12,14,10,02,7.50
2017,12,14,10,03,7.50
2017,12,14,10,04,7.50
2017,12,14,10,05,7.50
2017,12,14,10,06,7.50
2017,12,14,10,07,7.40
2017,12,14,10,08,7.40
2017,12,14,10,09,7.40
2017,12,14,10,10,7.40
2017,12,14,10,11,7.40
2017,12,14,10,12,7.40
2017,12,14,10,13,7.40
2017,12,14,10,14,7.40
2017,12,14,10,15,7.40
2017,12,14,10,16,7.40
2017,12,14,10,17,7.40
2017,12,14,10,18,7.40
2017,12,14,10,19,7.40
2017,12,14,10,20,7.40
2017,12,14,10,21,7.40
2017,12,14,10,22,7.40
2017,12,14,10,23,7.40
2017,12,14,10,24,7.40
2017,12,14,10,25,7.40
2017,12,14,10,26,7.40
2017,12,14,10,27,7.40
2017,12,14,10,28,7.40
2017,12,14,10,29,7.40
2017,12,14,10,30,7.40
2017,12,14,10,31,7.40
2017,12,14,10,32,7.40
2017,12,14,10,33,7.40
2017,12,14,10,34,7.40
2017,12,14,10,35,7.50
2017,12,14,10,36,7.50
2017,12,14,10,37,7.60
2017,12,14,10,38,7.60
2017,12,14,10,39,7.70
2017,12,14,10,40,7.70
2017,12,14,10,41,7.70
2017,12,14,10,42,7.70
2017,12,14,10,43,7.70
2017,12,14,10,44,7.70
2017,12,14,10,45,7.70
2017,12,14,10,46,7.70
2017,12,14,10,47,7.70
2017,12,14,10,48,7.70
2017,12,14,10,49,7.80
2017,12,14,10,50,7.80
2017,12,14,10,51,7.80
2017,12,14,10,52,7.90
2017,12,14,10,53,7.90
2017,12,14,10,54,8.00
2017,12,14,10,55,8.10
2017,12,14,10,56,8.10
2017,12,14,10,57,8.20
2017,12,14,10,58,8.30
2017,12,14,10,59,8.40
2017,12,14,11,00,8.50
2017,12,14,11,01,8.60
2017,12,14,11,02,8.80
2017,12,14,11,03,8.90
2017,12,14,11,04,9.00
2017,12,14,11,05,9.10
2017,12,14,11,06,9.20
2017,12,14,11,07,9.30
2017,12,14,11,08,9.30
2017,12,14,11,09,9.40
2017,12,14,11,10,9.40
2017,12,14,11,11,9.40
2017,12,14,11,12,9.50
2017,12,14,11,13,9.50
2017,12,14,11,14,9.60
2017,12,14,11,15,9.60
2017,12,14,11,16,9.60
2017,12,14,11,17,9.60
2017,12,14,11,18,9.60
2017,12,14,11,19,9.60
2017,12,14,11,20,9.60
2017,12,14,11,21,9.70
2017,12,14,11,22,9.80
2017,12,14,11,23,9.80
2017,12,14,11,24,9.80
2017,12,14,11,25,9.90
2017,12,14,11,26,9.90
2017,12,14,11,27,10.00
2017,12,14,11,28,10.00
2017,12,14,11,29,10.10
2017,12,14,11,30,10.10
2017,12,14,11,31,10.20
2017,12,14,11,32,10.20
2017,12,14,11,33,10.20
2017,12,14,11,34,10.20
2017,12,14,11,35,10.20
2017,12,14,11,36,10.20
2017,12,14,11,37,10.20
2017,12,14,11,38,10.30
2017,12,14,11,39,10.40
2017,12,14,11,40,10.50
2017,12,14,11,41,10.50
2017,12,14,11,42,10.60
2017,12,14,11,43,10.60
2017,12,14,11,44,10.70
2017,12,14,11,45,10.80
2017,12,14,11,46,10.80
2017,12,14,11,47,10.80
2017,12,14,11,48,10.90
2017,12,14,11,49,10.90
2017,12,14,11,50,11.00
2017,12,14,11,51,11.00
2017,12,14,11,52,11.10
2017,12,14,11,53,11.10
2017,12,14,11,54,11.00
2017,12,14,11,55,11.00
2017,12,14,11,56,11.00
2017,12,14,11,57,11.00
2017,12,14,11,58,11.00
2017,12,14,11,59,11.00
2017,12,14,12,00,11.10
2017,12,14,12,01,11.10
2017,12,14,12,02,11.20
2017,12,14,12,03,11.20
2017,12,14,12,04,11.20
2017,12,14,12,05,11.20
2017,12,14,12,06,11.20
2017,12,14,12,07,11.20
2017,12,14,12,08,11.20
2017,12,14,12,09,11.20
2017,12,14,12,10,11.10
2017,12,14,12,11,11.10
2017,12,14,12,12,11.00
2017,12,14,12,13,11.00
2017,12,14,12,14,10.90
2017,12,14,12,15,10.90
2017,12,14,12,16,10.80
2017,12,14,12,17,10.80
2017,12,14,12,18,10.80
2017,12,14,12,19,10.70
2017,12,14,12,20,10.70
2017,12,14,12,21,10.70
2017,12,14,12,22,10.70
2017,12,14,12,23,10.70
2017,12,14,12,24,10.70
2017,12,14,12,25,10.70
2017,12,14,12,26,10.70
2017,12,14,12,27,10.70
2017,12,14,12,28,10.70
2017,12,14,12,29,10.70
2017,12,14,12,30,10.80
2017,12,14,12,31,10.80
2017,12,14,12,32,10.80
2017,12,14,12,33,10.90
2017,12,14,12,34,10.90
2017,12,14,12,35,10.90
2017,12,14,12,36,10.90
2017,12,14,12,37,10.80
2017,12,14,12,38,10.80
2017,12,14,12,39,10.80
2017,12,14,12,40,10.80
2017,12,14,12,41,10.80
2017,12,14,12,42,10.90
2017,12,14,12,43,10.90
2017,12,14,12,44,10.90
2017,12,14,12,45,10.90
2017,12,14,12,46,10.90
2017,12,14,12,47,10.90
2017,12,14,12,48,10.90
2017,12,14,12,49,10.90
2017,12,14,12,50,10.90
2017,12,14,12,51,10.90
2017,12,14,12,52,11.00
2017,12,14,12,53,11.00
2017,12,14,12,54,11.00
2017,12,14,12,55,10.90
2017,12,14,12,56,10.80
2017,12,14,12,57,10.80
2017,12,14,12,58,10.80
2017,12,14,12,59,10.80
2017,12,14,13,00,10.80
2017,12,14,13,01,10.70
2017,12,14,13,02,10.70
2017,12,14,13,03,10.70
2017,12,14,13,04,10.70
2017,12,14,13,05,10.60
2017,12,14,13,06,10.60
2017,12,14,13,07,10.50
2017,12,14,13,08,10.50
2017,12,14,13,09,10.50
2017,12,14,13,10,10.50
2017,12,14,13,11,10.50
2017,12,14,13,12,10.60
2017,12,14,13,13,10.60
2017,12,14,13,14,10.60
2017,12,14,13,15,10.50
2017,12,14,13,16,10.50
2017,12,14,13,17,10.50
2017,12,14,13,18,10.50
2017,12,14,13,19,10.50
2017,12,14,13,20,10.50
2017,12,14,13,21,10.50
2017,12,14,13,22,10.40
2017,12,14,13,23,10.40
2017,12,14,13,24,10.30
2017,12,14,13,25,10.30
2017,12,14,13,26,10.30
2017,12,14,13,27,10.30
2017,12,14,13,28,10.30
2017,12,14,13,29,10.30
2017,12,14,13,30,10.30
2017,12,14,13,31,10.30
2017,12,14,13,32,10.30
2017,12,14,13,33,10.30
2017,12,14,13,34,10.30
2017,12,14,13,35,10.20
2017,12,14,13,36,10.20
2017,12,14,13,37,10.20
2017,12,14,13,38,10.30
2017,12,14,13,39,10.30
2017,12,14,13,40,10.40
2017,12,14,13,41,10.40
2017,12,14,13,42,10.50
2017,12,14,13,43,10.60
2017,12,14,13,44,10.60
2017,12,14,13,45,10.70
2017,12,14,13,46,10.70
2017,12,14,13,47,10.80
2017,12,14,13,48,10.90
2017,12,14,13,49,10.90
2017,12,14,13,50,11.00
2017,12,14,13,51,11.10
2017,12,14,13,52,11.20
2017,12,14,13,53,11.20
2017,12,14,13,54,11.30
2017,12,14,13,55,11.30
2017,12,14,13,56,11.30
2017,12,14,13,57,11.30
2017,12,14,13,58,11.30
2017,12,14,13,59,11.30
2017,12,14,14,00,11.20
2017,12,14,14,01,11.20
2017,12,14,14,02,11.20
2017,12,14,14,03,11.20
2017,12,14,14,04,11.20
2017,12,14,14,05,11.20
2017,12,14,14,06,11.30
2017,12,14,14,07,11.30
2017,12,14,14,08,11.30
2017,12,14,14,09,11.30
2017,12,14,14,10,11.40
2017,12,14,14,11,11.40
2017,12,14,14,12,11.30
2017,12,14,14,13,11.30
2017,12,14,14,14,11.30
2017,12,14,14,15,11.30
2017,12,14,14,16,11.40
2017,12,14,14,17,11.40
2017,12,14,14,18,11.50
2017,12,14,14,19,11.50
2017,12,14,14,20,11.60
2017,12,14,14,21,11.60
2017,12,14,14,22,11.60
2017,12,14,14,23,11.60
2017,12,14,14,24,11.60
2017,12,14,14,25,11.50
2017,12,14,14,26,11.50
2017,12,14,14,27,11.40
2017,12,14,14,28,11.40
2017,12,14,14,29,11.30
2017,12,14,14,30,11.30
2017,12,14,14,31,11.30
2017,12,14,14,32,11.30
2017,12,14,14,33,11.20
2017,12,14,14,34,11.20
2017,12,14,14,35,11.20
2017,12,14,14,36,11.10
2017,12,14,14,37,11.10
2017,12,14,14,38,11.10
2017,12,14,14,39,11.10
2017,12,14,14,40,11.10
2017,12,14,14,41,11.10
2017,12,14,14,42,11.10
2017,12,14,14,43,11.10
2017,12,14,14,44,11.10
2017,12,14,14,45,11.10
2017,12,14,14,46,11.10
2017,12,14,14,47,11.10
2017,12,14,14,48,11.10
2017,12,14,14,49,11.00
2017,12,14,14,50,11.00
2017,12,14,14,51,10.90
2017,12,14,14,52,10.90
2017,12,14,14,53,10.80
2017,12,14,14,54,10.80
2017,12,14,14,55,10.80
2017,12,14,14,56,10.80
2017,12,14,14,57,10.70
2017,12,14,14,58,10.70
2017,12,14,14,59,10.70
2017,12,14,15,00,10.70
2017,12,14,15,01,10.60
2017,12,14,15,02,10.60
2017,12,14,15,03,10.60
2017,12,14,15,04,10.60
2017,12,14,15,05,10.60
2017,12,14,15,06,10.60
2017,12,14,15,07,10.60
2017,12,14,15,08,10.60
2017,12,14,15,09,10.60
2017,12,14,15,10,10.60
2017,12,14,15,11,10.60
2017,12,14,15,12,10.50
2017,12,14,15,13,10.60
2017,12,14,15,14,10.60
2017,12,14,15,15,10.60
2017,12,14,15,16,10.60
2017,12,14,15,17,10.60
2017,12,14,15,18,10.60
2017,12,14,15,19,10.60
2017,12,14,15,20,10.60
2017,12,14,15,21,10.60
2017,12,14,15,22,10.60
2017,12,14,15,23,10.60
2017,12,14,15,24,10.60
2017,12,14,15,25,10.50
2017,12,14,15,26,10.50
2017,12,14,15,27,10.40
2017,12,14,15,28,10.40
2017,12,14,15,29,10.40
2017,12,14,15,30,10.30
2017,12,14,15,31,10.30
2017,12,14,15,32,10.30
2017,12,14,15,33,10.20
2017,12,14,15,34,10.20
2017,12,14,15,35,10.10
2017,12,14,15,36,10.10
2017,12,14,15,37,10.10
2017,12,14,15,38,10.00
2017,12,14,15,39,9.90
2017,12,14,15,40,9.90
2017,12,14,15,41,9.80
2017,12,14,15,42,9.80
2017,12,14,15,43,9.70
2017,12,14,15,44,9.70
2017,12,14,15,45,9.70
2017,12,14,15,46,9.60
2017,12,14,15,47,9.60
2017,12,14,15,48,9.50
2017,12,14,15,49,9.50
2017,12,14,15,50,9.40
2017,12,14,15,51,9.40
2017,12,14,15,52,9.30
2017,12,14,15,53,9.30
2017,12,14,15,54,9.20
2017,12,14,15,55,9.20
2017,12,14,15,56,9.20
2017,12,14,15,57,9.10
2017,12,14,15,58,9.10
2017,12,14,15,59,9.10
2017,12,14,16,00,9.00
2017,12,14,16,01,9.00
2017,12,14,16,02,8.90
2017,12,14,16,03,8.90
2017,12,14,16,04,8.90
2017,12,14,16,05,8.90
2017,12,14,16,06,8.80
2017,12,14,16,07,8.80
2017,12,14,16,08,8.80
2017,12,14,16,09,8.70
2017,12,14,16,10,8.70
2017,12,14,16,11,8.70
2017,12,14,16,12,8.70
2017,12,14,16,13,8.60
2017,12,14,16,14,8.60
2017,12,14,16,15,8.60
2017,12,14,16,16,8.60
2017,12,14,16,17,8.60
2017,12,14,16,18,8.50
2017,12,14,16,19,8.50
2017,12,14,16,20,8.50
2017,12,14,16,21,8.40
2017,12,14,16,22,8.40
2017,12,14,16,23,8.40
2017,12,14,16,24,8.40
2017,12,14,16,25,8.30
2017,12,14,16,26,8.30
2017,12,14,16,27,8.30
2017,12,14,16,28,8.30
2017,12,14,16,29,8.30
2017,12,14,16,30,8.30
2017,12,14,16,31,8.20
2017,12,14,16,32,8.20
2017,12,14,16,33,8.20
2017,12,14,16,34,8.20
2017,12,14,16,35,8.10
2017,12,14,16,36,8.10
2017,12,14,16,37,8.10
2017,12,14,16,38,8.10
2017,12,14,16,39,8.00
2017,12,14,16,40,8.00
2017,12,14,16,41,7.90
2017,12,14,16,42,7.90
2017,12,14,16,43,7.80
2017,12,14,16,44,7.80
2017,12,14,16,45,7.80
2017,12,14,16,46,7.80
2017,12,14,16,47,7.70
2017,12,14,16,48,7.70
2017,12,14,16,49,7.70
2017,12,14,16,50,7.60
2017,12,14,16,51,7.60
2017,12,14,16,52,7.60
2017,12,14,16,53,7.50
2017,12,14,16,54,7.50
2017,12,14,16,55,7.40
2017,12,14,16,56,7.40
2017,12,14,16,57,7.40
2017,12,14,16,58,7.40
2017,12,14,16,59,7.30
2017,12,14,17,00,7.30
2017,12,14,17,01,7.30
2017,12,14,17,02,7.30
2017,12,14,17,03,7.30
2017,12,14,17,04,7.20
2017,12,14,17,05,7.20
2017,12,14,17,06,7.20
2017,12,14,17,07,7.20
2017,12,14,17,08,7.20
2017,12,14,17,09,7.20
2017,12,14,17,10,7.20
2017,12,14,17,11,7.20
2017,12,14,17,12,7.10
2017,12,14,17,13,7.10
2017,12,14,17,14,7.10
2017,12,14,17,15,7.10
2017,12,14,17,16,7.10
2017,12,14,17,17,7.00
2017,12,14,17,18,7.00
2017,12,14,17,19,7.00
2017,12,14,17,20,7.00
2017,12,14,17,21,6.90
2017,12,14,17,22,6.90
2017,12,14,17,23,6.90
2017,12,14,17,24,6.90
2017,12,14,17,25,6.80
2017,12,14,17,26,6.80
2017,12,14,17,27,6.80
2017,12,14,17,28,6.80
2017,12,14,17,29,6.80
2017,12,14,17,30,6.70
2017,12,14,17,31,6.70
2017,12,14,17,32,6.70
2017,12,14,17,33,6.60
2017,12,14,17,34,6.50
2017,12,14,17,35,6.50
2017,12,14,17,36,6.40
2017,12,14,17,37,6.40
2017,12,14,17,38,6.30
2017,12,14,17,39,6.30
2017,12,14,17,40,6.20
2017,12,14,17,41,6.20
2017,12,14,17,42,6.10
2017,12,14,17,43,6.10
2017,12,14,17,44,6.10
2017,12,14,17,45,6.00
2017,12,14,17,46,6.00
2017,12,14,17,47,6.00
2017,12,14,17,48,6.00
2017,12,14,17,49,5.90
2017,12,14,17,50,5.90
2017,12,14,17,51,5.80
2017,12,14,17,52,5.80
2017,12,14,17,53,5.80
2017,12,14,17,54,5.70
2017,12,14,17,55,5.70